Montross, Virginia, United States (22520)
Lat: 38.09N, Lon: 76.83W
Wx Zone: VAZ075
Local Info
Past Weather Observations for Tuesday, March 24, 2015

NOTE: This archive is for the closest National Weather Service station to Montross. Information may differ from the station used for current weather conditions.

Click here for Long-term Archive

Time Weather Temperature Dewpoint Humidity Pressure Winds Precip Visibility
23:52
Clear
36°F / 2°C 28°F / -2°C 75% 30.39 in
(1029 mb)
ESE 6.9 mph
(ESE 11 kph)
- 10SM
22:52
Clear
37°F / 3°C 28°F / -2°C 70% 30.39 in
(1029 mb)
SE 6.9 mph
(SE 11 kph)
- 10SM
21:52
Partly Cloudy
36°F / 2°C 25°F / -4°C 65% 30.39 in
(1029 mb)
E 8.1 mph
(E 13 kph)
- 10SM
20:52
Partly Cloudy
36°F / 2°C 27°F / -3°C 70% 30.39 in
(1029 mb)
NE 3.5 mph
(NE 6 kph)
- 10SM
19:52
Partly Cloudy
37°F / 3°C 27°F / -3°C 65% 30.39 in
(1029 mb)
NE 8.1 mph
(NE 13 kph)
- 10SM
18:52
Partly Cloudy
37°F / 3°C 23°F / -5°C 56% 30.36 in
(1028 mb)
N 5.8 mph
(N 9 kph)
- 10SM
17:52
Partly Cloudy
41°F / 5°C 21°F / -6°C 45% 30.36 in
(1028 mb)
N 9.2 mph
(N 15 kph)
- 10SM
16:52
Partly Cloudy
43°F / 6°C 21°F / -6°C 42% 30.33 in
(1027 mb)
N 10.4 mph
(N 17 kph)
- 10SM
15:52
Mostly Cloudy
43°F / 6°C 21°F / -6°C 42% 30.33 in
(1027 mb)
NE 10.4 mph
(NE 17 kph)
- 10SM
14:52
Overcast
43°F / 6°C 19°F / -7°C 39% 30.33 in
(1027 mb)
NE 8.1 mph
(NE 13 kph)
- 10SM
13:52
Mostly Cloudy
43°F / 6°C 19°F / -7°C 39% 30.33 in
(1027 mb)
ENE 5.8 mph
(ENE 9 kph)
- 10SM
12:52
Mostly Cloudy
41°F / 5°C 18°F / -8°C 39% 30.33 in
(1027 mb)
E 6.9 mph
(E 11 kph)
- 10SM
11:52
Mostly Cloudy
43°F / 6°C 19°F / -7°C 39% 30.33 in
(1027 mb)
E 10.4 mph
(E 17 kph)
- 10SM
10:52
Mostly Cloudy
41°F / 5°C 19°F / -7°C 42% 30.33 in
(1027 mb)
E 6.9 mph
(E 11 kph)
- 10SM
09:52
Overcast
39°F / 4°C 18°F / -8°C 42% 30.36 in
(1028 mb)
ESE 6.9 mph
(ESE 11 kph)
- 10SM
08:52
Overcast
37°F / 3°C 19°F / -7°C 48% 30.33 in
(1027 mb)
ENE 8.1 mph
(ENE 13 kph)
- 10SM
07:52
Mostly Cloudy
37°F / 3°C 21°F / -6°C 52% 30.3 in
(1026 mb)
ENE 8.1 mph
(ENE 13 kph)
- 10SM
06:52
Mostly Cloudy
36°F / 2°C 21°F / -6°C 56% 30.3 in
(1026 mb)
ENE 10.4 mph
(ENE 17 kph)
- 10SM
05:52
Mostly Cloudy
36°F / 2°C 25°F / -4°C 65% 30.27 in
(1025 mb)
ENE 8.1 mph
(ENE 13 kph)
- 10SM
04:52
Overcast
37°F / 3°C 28°F / -2°C 70% 30.27 in
(1025 mb)
N 5.8 mph
(N 9 kph)
- 10SM
03:52
Overcast
37°F / 3°C 28°F / -2°C 70% 30.24 in
(1024 mb)
Calm - 10SM
02:52
Overcast
37°F / 3°C 28°F / -2°C 70% 30.24 in
(1024 mb)
Calm - 10SM
01:52
Overcast
37°F / 3°C 28°F / -2°C 70% 30.27 in
(1025 mb)
S 4.6 mph
(S 7 kph)
- 10SM
00:52
Overcast
37°F / 3°C 28°F / -2°C 70% 30.27 in
(1025 mb)
SW 3.5 mph
(SW 6 kph)
- 10SM
Time Weather Temperature Dewpoint Humidity Pressure Winds Precip Visibility


Weather for websites

WeatherForYou.com, LLC is not responsible for any damages or problems caused by this service. Current weather conditions are obtained from the closest station including government and personal stations which may have varying degrees of accuracy. Weather forecasts are derived from the NOAA NDFD. Like all things, this site belongs to Jesus Christ... He just trusts me to maintain it. If you have any questions or comments email webmaster@weatherforyou.com

Copyright © 2015, WeatherForYou.com LLC. All rights reserved.